[[{"header":{"parameterUnit":"m.s-1","parameterCategory":1,"la1":30.2991,"la2":30.254,"lo1":-89.0895,"lo2":-89.0444,"dy":0.0017,"dx":0.0017,"nx":28,"ny":28,"refTime":"2026-01-04T03:00:00:Z","depth":0,"parameterNumber":2,"parameterNumberName":"U-component_of_WINDS"},"data":[0,0,0,0,0,0,0,0,0,0,0,0,0,0,0,0,0,0,0,0,0,0,0,0,0,0,0,0,0,0,0,0,0,0,0,0,0,0,0,0,0,0,0,0,0,0,0,0,0,0,0,0,0,0,0,0,0,0,-0.7833,-0.7833,0,-0.7863,-0.7864,-0.7864,-0.7823,-0.7821,-0.782,-0.7818,-0.7852,-0.7855,-0.7857,0,0,0,0,0,0,0,0,0,0,0,0,0,-0.7741,-0.7743,-0.7833,-0.7833,-0.7834,-0.7863,-0.7864,-0.7864,-0.7823,-0.7821,-0.7819,-0.7818,-0.7852,-0.7854,-0.7857,0,0,0,0,0,0,0,0,0,0,0,0,0,-0.7777,-0.7744,-0.7833,-0.7817,-0.7815,-0.7863,-0.7864,-0.7864,-0.7823,-0.7821,-0.7819,-0.7817,-0.7851,-0.7854,-0.7858,-0.7923,0,0,-0.7868,-0.787,0,0,0,0,0,0,0,0,-0.7775,-0.7781,-0.7819,-0.7818,-0.7817,-0.7837,-0.7844,-0.7884,-0.7824,-0.7821,-0.7818,-0.7816,-0.7849,-0.7853,-0.7863,-0.7925,-0.7927,-0.7868,-0.787,-0.7872,-0.7873,0,0,0,0,0,0,0,-0.7773,-0.7779,-0.7845,-0.7819,-0.7818,-0.7808,-0.7811,-0.7851,-0.7847,-0.7821,-0.7818,-0.7822,-0.7848,-0.786,-0.7864,-0.7927,-0.7868,-0.7871,-0.7873,-0.7875,-0.8044,-0.8046,0,0,0,0,0,0,-0.7772,-0.7777,-0.7844,-0.7846,-0.779,-0.7812,-0.7815,-0.7833,-0.7847,-0.7846,-0.7824,-0.782,-0.7855,-0.786,-0.7865,-0.7943,-0.7872,-0.7875,-0.7877,-0.8042,-0.8045,-0.8047,0,0,0,0,0,0,-0.777,-0.7778,-0.7843,-0.7811,-0.7818,-0.7816,-0.7836,-0.7834,-0.7846,-0.7849,-0.7848,-0.7836,-0.7854,-0.786,-0.7909,-0.7944,-0.7877,-0.788,-0.8039,-0.8043,-0.8046,-0.8101,0,0,0,0,0,0,-0.7768,-0.7778,-0.7803,-0.7812,-0.782,-0.7886,-0.7838,-0.7837,-0.7852,-0.7847,-0.7861,-0.7861,-0.7853,-0.7904,-0.7912,-0.7948,-0.7882,-0.8036,-0.8041,-0.8045,-0.8096,-0.8106,-0.8114,0,0,0,0,0,-0.7765,-0.7817,-0.7804,-0.7812,-0.7851,-0.7888,-0.7893,-0.7882,-0.7855,-0.788,-0.7881,-0.786,-0.7938,-0.7909,-0.7918,-0.7955,-0.8034,-0.8039,-0.8044,-0.8092,-0.8104,-0.8114,0,0,0,0,0,0,-0.7814,-0.7818,-0.7804,-0.7861,-0.7874,-0.7881,-0.7913,-0.7895,-0.7917,-0.7912,-0.7898,-0.7901,-0.7953,-0.7959,-0.7927,-0.802,-0.7982,-0.7989,-0.8014,-0.8026,-0.8035,-0.8033,-0.7885,0,0,0,0,0,-0.7831,-0.786,-0.7863,-0.7913,-0.792,-0.7915,-0.7931,-0.7921,-0.7935,-0.7941,-0.7946,-0.7961,-0.7988,-0.8007,-0.8033,-0.8096,-0.8098,-0.8125,-0.8134,-0.8142,-0.8149,-0.8183,-0.8195,-0.8065,-0.8065,-0.8065,0,0,-0.7868,-0.7874,-0.7893,-0.7923,-0.7932,-0.7964,-0.7921,-0.7955,-0.7979,-0.7946,-0.7993,-0.7997,-0.8012,-0.8069,-0.8094,-0.8075,-0.8185,-0.8149,-0.8155,-0.8158,-0.819,-0.8203,-0.8213,-0.8069,-0.8068,-0.8068,0,0,-0.7951,-0.7958,-0.8,-0.801,-0.8024,-0.802,-0.803,-0.8039,-0.8041,-0.8087,-0.8063,-0.809,-0.8138,-0.8151,-0.8163,-0.8249,-0.8231,-0.8258,-0.8307,-0.834,-0.835,-0.8359,-0.8391,-0.8402,-0.8264,-0.8265,-0.8265,0,-0.7995,-0.804,-0.8025,-0.8061,-0.8075,-0.8046,-0.8089,-0.81,-0.8122,-0.8133,-0.8111,-0.817,-0.8178,-0.8237,-0.8258,-0.8269,-0.8281,-0.8257,-0.835,-0.8359,-0.8367,-0.8397,-0.8409,-0.8268,-0.8268,-0.8267,-0.8267,0,-0.8094,-0.8126,-0.8159,-0.818,-0.8197,-0.8237,-0.8229,-0.8248,-0.8236,-0.8235,-0.8282,-0.829,-0.8317,-0.833,-0.8319,-0.8387,-0.8375,-0.8352,-0.8314,-0.8383,-0.8411,-0.8422,-0.8273,-0.8271,-0.827,-0.827,0,0,-0.8211,-0.8222,-0.8234,-0.8243,-0.8256,-0.8281,-0.8319,-0.8344,-0.8362,-0.8377,-0.841,-0.845,-0.8428,-0.8443,-0.8432,-0.8461,-0.853,-0.8434,-0.8434,-0.8453,-0.8606,-0.8625,-0.8638,-0.8516,-0.8519,-0.852,-0.8605,0,-0.8295,-0.836,-0.8347,-0.8412,-0.8441,-0.8413,-0.8446,-0.8458,-0.8457,-0.8482,-0.8481,-0.8511,-0.8479,-0.8487,-0.8515,-0.8516,-0.8561,-0.8509,-0.8548,-0.8549,-0.8546,-0.8653,-0.8673,-0.8753,-0.8616,-0.8618,-0.8619,0,-0.8401,-0.842,-0.8488,-0.8495,-0.8507,-0.8537,-0.8559,-0.8583,-0.8595,-0.8593,-0.8608,-0.8592,-0.8631,-0.859,-0.8644,-0.8609,-0.8624,-0.8627,-0.8629,-0.8634,-0.859,-0.8662,-0.8778,-0.879,-0.8636,-0.8635,-0.8633,0,-0.8481,-0.8523,-0.8569,-0.8577,-0.8587,-0.8609,-0.8614,-0.8624,-0.864,-0.8659,-0.8669,-0.8693,-0.8706,-0.8725,-0.8716,-0.8687,-0.8771,-0.873,-0.8771,-0.8772,-0.8792,-0.8791,-0.8914,-0.8799,-0.8799,-0.8798,-0.8798,0,-0.8577,-0.862,-0.8605,-0.8633,-0.868,-0.8664,-0.8711,-0.8713,-0.8722,-0.8751,-0.8727,-0.8755,-0.874,-0.8767,-0.876,-0.8806,-0.8811,-0.8811,-0.8809,-0.8814,-0.8814,-0.8825,-0.882,-0.8802,-0.8801,-0.88,-0.88,0,-0.8675,-0.8667,-0.8715,-0.8719,-0.8721,-0.8756,-0.876,-0.8786,-0.8783,-0.8819,-0.8827,-0.8822,-0.8852,-0.8844,-0.8877,-0.8872,-0.893,-0.892,-0.8926,-0.8924,-0.8966,-0.8963,-0.9101,-0.9118,-0.8991,-0.8992,-0.8993,0,-0.8738,-0.877,-0.8777,-0.8794,-0.88,-0.8828,-0.8844,-0.8829,-0.8846,-0.8862,-0.8887,-0.8915,-0.8936,-0.8985,-0.8985,-0.901,-0.9001,-0.9048,-0.9005,-0.9009,-0.9004,-0.9002,-0.9006,-0.9057,-0.9059,-0.906,-0.9061,0,-0.885,-0.8844,-0.8867,-0.8888,-0.8907,-0.8924,-0.8938,-0.8954,-0.894,-0.896,-0.899,-0.9007,-0.9039,-0.9067,-0.909,-0.9095,-0.9077,-0.9074,-0.9085,-0.9091,-0.9094,-0.9094,-0.8951,-0.9071,-0.907,-0.9069,-0.9069,-0.9068,-0.8933,-0.896,-0.8969,-0.8995,-0.9004,-0.9018,-0.9043,-0.9042,-0.9066,-0.9091,-0.9081,-0.9115,-0.9126,-0.9154,-0.9163,-0.919,-0.9172,-0.9188,-0.9192,-0.9197,-0.9202,-0.9088,-0.9194,-0.9193,-0.9193,-0.9193,-0.9192,0,-0.9045,-0.9049,-0.9073,-0.9093,-0.9114,-0.9092,-0.9107,-0.9126,-0.9156,-0.9167,-0.9188,-0.9223,-0.9249,-0.925,-0.9275,-0.9297,-0.9289,-0.9304,-0.9303,-0.9305,-0.9216,-0.9205,-0.931,-0.931,-0.931,-0.931,-0.931,-0.931,-0.9105,-0.915,-0.9145,-0.9194,-0.9198,-0.9231,-0.9241,-0.9253,-0.9262,-0.9301,-0.9323,-0.9323,-0.933,-0.9355,-0.9379,-0.9378,-0.9389,-0.9408,-0.9405,-0.9322,-0.9311,-0.93,-0.9289,-0.941,-0.941,-0.9491,-0.9492,-0.9492]},{"header":{"parameterUnit":"m.s-1","parameterCategory":1,"la1":30.2991,"la2":30.254,"lo1":-89.0895,"lo2":-89.0444,"dy":0.0017,"dx":0.0017,"nx":28,"ny":28,"refTime":"2026-01-04T03:00:00:Z","depth":0,"parameterNumber":3,"parameterNumberName":"V-component_of_WINDS"},"data":[0,0,0,0,0,0,0,0,0,0,0,0,0,0,0,0,0,0,0,0,0,0,0,0,0,0,0,0,0,0,0,0,0,0,0,0,0,0,0,0,0,0,0,0,0,0,0,0,0,0,0,0,0,0,0,0,0,0,-5.6963,-5.6964,0,-5.7063,-5.7064,-5.7065,-5.7003,-5.7,-5.6997,-5.6995,-5.7093,-5.7098,-5.7103,0,0,0,0,0,0,0,0,0,0,0,0,0,-5.6715,-5.672,-5.6963,-5.6964,-5.6965,-5.7063,-5.7064,-5.7065,-5.7004,-5.7,-5.6997,-5.6993,-5.7091,-5.7097,-5.7103,0,0,0,0,0,0,0,0,0,0,0,0,0,-5.6819,-5.6721,-5.6963,-5.6946,-5.6946,-5.7062,-5.7064,-5.7066,-5.7004,-5.7,-5.6996,-5.6992,-5.7089,-5.7096,-5.7104,-5.7241,0,0,-5.7129,-5.7132,0,0,0,0,0,0,0,0,-5.6813,-5.6828,-5.6948,-5.6948,-5.6947,-5.7016,-5.7012,-5.7124,-5.7006,-5.6982,-5.6995,-5.6989,-5.707,-5.708,-5.7108,-5.7245,-5.725,-5.7129,-5.7134,-5.7138,-5.714,0,0,0,0,0,0,0,-5.6806,-5.6824,-5.7002,-5.6949,-5.6949,-5.6933,-5.6943,-5.7033,-5.7049,-5.6984,-5.698,-5.6993,-5.7069,-5.71,-5.711,-5.7251,-5.7129,-5.7136,-5.7141,-5.7144,-5.7506,-5.7511,0,0,0,0,0,0,-5.6801,-5.6818,-5.6999,-5.7005,-5.6868,-5.6941,-5.6952,-5.6998,-5.7048,-5.7052,-5.6996,-5.6989,-5.7089,-5.71,-5.7113,-5.7277,-5.7138,-5.7145,-5.715,-5.7501,-5.7507,-5.7512,0,0,0,0,0,0,-5.6796,-5.6818,-5.6995,-5.6911,-5.6932,-5.695,-5.7002,-5.7003,-5.7033,-5.7058,-5.706,-5.7025,-5.7086,-5.7102,-5.721,-5.7279,-5.7149,-5.7156,-5.7496,-5.7503,-5.751,-5.7605,0,0,0,0,0,0,-5.6789,-5.6816,-5.6869,-5.6912,-5.6937,-5.7092,-5.7007,-5.7008,-5.7048,-5.704,-5.7085,-5.7088,-5.7084,-5.7198,-5.7218,-5.7288,-5.7162,-5.7489,-5.7499,-5.7507,-5.7596,-5.7615,-5.7631,0,0,0,0,0,-5.678,-5.6891,-5.6872,-5.6894,-5.7004,-5.7096,-5.711,-5.7103,-5.7054,-5.7107,-5.7122,-5.7087,-5.7268,-5.721,-5.7231,-5.7305,-5.7485,-5.7496,-5.7507,-5.7588,-5.7611,-5.763,0,0,0,0,0,0,-5.6853,-5.6896,-5.6876,-5.7004,-5.7047,-5.7086,-5.7152,-5.7128,-5.7185,-5.7175,-5.7162,-5.7173,-5.7287,-5.7306,-5.724,-5.744,-5.7369,-5.7384,-5.7423,-5.7445,-5.7462,-5.7455,-5.7169,0,0,0,0,0,-5.6885,-5.6958,-5.699,-5.71,-5.7123,-5.7134,-5.7174,-5.7166,-5.7209,-5.7227,-5.725,-5.7292,-5.7359,-5.7403,-5.7465,-5.7598,-5.7607,-5.7659,-5.7676,-5.7691,-5.7704,-5.7777,-5.78,-5.7548,-5.7548,-5.7548,0,0,-5.695,-5.6982,-5.7028,-5.7116,-5.7148,-5.7223,-5.715,-5.7232,-5.7287,-5.7238,-5.7343,-5.7362,-5.7408,-5.753,-5.7584,-5.7549,-5.7776,-5.7704,-5.7716,-5.7722,-5.779,-5.7814,-5.7835,-5.7555,-5.7554,-5.7553,0,0,-5.7106,-5.7138,-5.7234,-5.7268,-5.7319,-5.7326,-5.7349,-5.7391,-5.7403,-5.7508,-5.7473,-5.7537,-5.7652,-5.7687,-5.772,-5.7891,-5.7861,-5.7911,-5.8003,-5.8073,-5.8093,-5.8111,-5.8172,-5.8194,-5.7925,-5.7925,-5.7925,0,-5.718,-5.7293,-5.7285,-5.7371,-5.7411,-5.7372,-5.7468,-5.7501,-5.7569,-5.7597,-5.7557,-5.7701,-5.7729,-5.7859,-5.7901,-5.7928,-5.7953,-5.7906,-5.8091,-5.8109,-5.8125,-5.8184,-5.8207,-5.7931,-5.793,-5.793,-5.7929,0,-5.7382,-5.7461,-5.7532,-5.7601,-5.7648,-5.7738,-5.7743,-5.7791,-5.7779,-5.7789,-5.7897,-5.7929,-5.7998,-5.8028,-5.8016,-5.8156,-5.8133,-5.8093,-5.8021,-5.8155,-5.821,-5.8232,-5.7939,-5.7937,-5.7935,-5.7934,0,0,-5.7588,-5.7652,-5.7678,-5.771,-5.7763,-5.7823,-5.7911,-5.798,-5.8022,-5.807,-5.8144,-5.8242,-5.8206,-5.8243,-5.8234,-5.8296,-5.843,-5.8247,-5.8248,-5.8281,-5.8587,-5.8618,-5.8644,-5.841,-5.8414,-5.8417,-5.8583,0,-5.7748,-5.7905,-5.7901,-5.8046,-5.8119,-5.8083,-5.816,-5.82,-5.8213,-5.8275,-5.8287,-5.8358,-5.8304,-5.8326,-5.8386,-5.8401,-5.8491,-5.8389,-5.8478,-5.8481,-5.8468,-5.8673,-5.8706,-5.8861,-5.8605,-5.8608,-5.8611,0,-5.7957,-5.8015,-5.8168,-5.8211,-5.8242,-5.8311,-5.8374,-5.8435,-5.848,-5.8484,-5.8527,-5.8508,-5.8596,-5.8522,-5.8644,-5.8574,-5.861,-5.8623,-5.8629,-5.8637,-5.8555,-5.8688,-5.891,-5.8934,-5.8645,-5.8642,-5.8639,0,-5.8093,-5.8208,-5.8315,-5.8343,-5.8396,-5.8446,-5.847,-5.8511,-5.8553,-5.8607,-5.8634,-5.8698,-5.8733,-5.8782,-5.8781,-5.8727,-5.8904,-5.8829,-5.891,-5.891,-5.8949,-5.8947,-5.9181,-5.8971,-5.8971,-5.897,-5.897,0,-5.8274,-5.8369,-5.8377,-5.8443,-5.8548,-5.8542,-5.8646,-5.8665,-5.8701,-5.8769,-5.8741,-5.8805,-5.8799,-5.8863,-5.8862,-5.8963,-5.8979,-5.8985,-5.8983,-5.8988,-5.8987,-5.9012,-5.9001,-5.8976,-5.8975,-5.8974,-5.8973,0,-5.8444,-5.8453,-5.8567,-5.8609,-5.8622,-5.8698,-5.8732,-5.8794,-5.8804,-5.8891,-5.891,-5.8926,-5.9,-5.9003,-5.9088,-5.9087,-5.9211,-5.9197,-5.9197,-5.9194,-5.9275,-5.9267,-5.9533,-5.9568,-5.9335,-5.9337,-5.9339,0,-5.8559,-5.8631,-5.8682,-5.8726,-5.8754,-5.8826,-5.8869,-5.8865,-5.8911,-5.8968,-5.9023,-5.9095,-5.9153,-5.9273,-5.929,-5.9355,-5.9343,-5.9432,-5.9352,-5.9355,-5.9345,-5.9342,-5.9349,-5.9448,-5.945,-5.9452,-5.9454,0,-5.8762,-5.8764,-5.8828,-5.8895,-5.8948,-5.9,-5.9048,-5.9086,-5.9087,-5.914,-5.9217,-5.9262,-5.935,-5.9421,-5.9484,-5.9507,-5.9482,-5.9479,-5.9501,-5.9507,-5.9504,-5.9507,-5.924,-5.9473,-5.9471,-5.947,-5.9469,-5.9468,-5.8909,-5.8972,-5.9018,-5.9091,-5.9127,-5.9173,-5.9234,-5.9253,-5.9317,-5.939,-5.9383,-5.9468,-5.951,-5.9593,-5.9621,-5.9687,-5.9656,-5.9688,-5.9696,-5.9704,-5.9714,-5.9493,-5.9698,-5.9697,-5.9697,-5.9696,-5.9696,0,-5.9112,-5.914,-5.9207,-5.9277,-5.9334,-5.9306,-5.9358,-5.9408,-5.9484,-5.9526,-5.9584,-5.9672,-5.9742,-5.9765,-5.9833,-5.9881,-5.987,-5.9898,-5.9895,-5.9901,-5.9737,-5.9711,-5.9906,-5.9906,-5.9906,-5.9906,-5.9906,-5.9906,-5.9224,-5.9331,-5.9338,-5.9461,-5.9488,-5.9573,-5.9605,-5.9647,-5.9681,-5.9782,-5.984,-5.9856,-5.9891,-5.996,-6.0023,-6.0028,-6.0054,-6.0087,-6.0087,-5.9934,-5.9912,-5.9892,-5.9869,-6.0093,-6.0093,-6.0246,-6.0248,-6.0249]}]]